Ludington, MI

6:36 PM EST on December 04, 2016 (GMT -0500)
Mason County

Weather History for KLDM - January, 2013

Change the Weather History Date:

Saturday, January 12, 2013

  Actual Average Record
Temperature  
Mean Temperature 44 °F -  
Max Temperature 52 °F 28 °F 52 °F (2013)
Min Temperature 35 °F 15 °F -5 °F (1964)
Degree Days  
Heating Degree Days 22    
Moisture  
Dew Point 37 °F    
Average Humidity 74    
Maximum Humidity 81    
Minimum Humidity 61    
Precipitation  
Precipitation 0.00 in - - ()
Sea Level Pressure  
Sea Level Pressure 29.79 in    
Wind  
Wind Speed 16 mph (SW)    
Max Wind Speed 23 mph    
Max Gust Speed 33 mph    
Visibility 10 miles    
Events Rain , Snow    
Averages and records for this station are not official NWS values.
T = Trace of Precipitation, MM = Missing Value Source: NWS Daily Summary

Daily Weather History Graph

Daily Weather History Graph

Search for Another Location

Airport or City:

Trip Planner

Search our weather history database for the weather conditions in past years. The results will help you decide how hot, cold, wet, or windy it might be!

Date:

Astronomy

Jan. 12, 2013 Rise Set
Actual Time 8:18 AM EST 5:30 PM EST
Civil Twilight 7:46 AM EST 6:02 PM EST
Nautical Twilight 7:10 AM EST 6:38 PM EST
Astronomical Twilight 6:35 AM EST 7:12 PM EST
Moon 8:33 AM EST (1/12) 7:02 PM EST (1/12)
Length of Visible Light 10h 16m
Length of Day
9h 12m
New Moon, 1% of the Moon is Illuminated
Jan 12
New Moon
Jan 18
First Quarter
Jan 26
Full
Feb 3
Last Quarter
Feb 10
New

Hourly Weather History & Observations

Time (EST) Temp. Windchill Dew Point Humidity Pressure Visibility Wind Dir Wind Speed Gust Speed Precip Events Conditions
12:15 AM 52.7 °F - 46.8 °F 80% 29.68 in 10.0 mi SSW 12.7 mph 26.5 mph N/A   Clear
12:35 AM 52.7 °F - 46.6 °F 80% 29.66 in 10.0 mi South 16.1 mph 31.1 mph N/A   Clear
12:55 AM 52.7 °F - 46.8 °F 80% 29.67 in 10.0 mi SSW 18.4 mph 26.5 mph N/A   Clear
1:15 AM 52.7 °F - 46.8 °F 80% 29.68 in 10.0 mi SSW 20.7 mph 26.5 mph N/A   Clear
1:34 AM 52.7 °F - 46.6 °F 80% 29.68 in 10.0 mi SSW 21.9 mph 31.1 mph N/A   Clear
1:55 AM 52.7 °F - 46.8 °F 80% 29.68 in 10.0 mi South 17.3 mph 25.3 mph N/A   Scattered Clouds
2:15 AM 52.5 °F - 46.6 °F 80% 29.68 in 10.0 mi SSW 23.0 mph 31.1 mph N/A   Clear
2:35 AM 51.4 °F - 45.5 °F 80% 29.69 in 10.0 mi SSW 18.4 mph 26.5 mph N/A   Clear
2:55 AM 52.5 °F - 46.4 °F 80% 29.70 in 10.0 mi South 18.4 mph 28.8 mph N/A   Clear
3:15 AM 52.7 °F - 46.4 °F 79% 29.68 in 10.0 mi South 23.0 mph 28.8 mph N/A   Clear
3:35 AM 51.6 °F - 45.5 °F 80% 29.69 in 10.0 mi SSW 18.4 mph 26.5 mph N/A   Clear
3:55 AM 51.4 °F - 45.5 °F 80% 29.69 in 10.0 mi SSW 17.3 mph 28.8 mph N/A   Clear
4:15 AM 51.3 °F - 45.3 °F 80% 29.68 in 10.0 mi South 16.1 mph 25.3 mph N/A   Clear
4:35 AM 50.2 °F - 44.6 °F 81% 29.67 in 10.0 mi SSW 18.4 mph 26.5 mph N/A   Clear
4:55 AM 50.2 °F - 44.6 °F 81% 29.67 in 10.0 mi SSW 19.6 mph 27.6 mph N/A   Clear
5:15 AM 50.2 °F - 44.6 °F 81% 29.66 in 10.0 mi SSW 17.3 mph 24.2 mph N/A   Clear
5:35 AM 50.2 °F - 44.6 °F 81% 29.66 in 10.0 mi South 21.9 mph 28.8 mph N/A   Clear
5:55 AM 50.2 °F - 44.2 °F 80% 29.66 in 10.0 mi South 19.6 mph 31.1 mph N/A   Clear
6:15 AM 50.2 °F - 43.9 °F 79% 29.66 in 10.0 mi SSW 19.6 mph 28.8 mph N/A   Clear
6:35 AM 50.2 °F - 43.7 °F 78% 29.66 in 10.0 mi South 21.9 mph 28.8 mph N/A   Clear
6:55 AM 51.4 °F - 44.6 °F 77% 29.66 in 10.0 mi SSW 17.3 mph 26.5 mph N/A   Clear
7:15 AM 51.4 °F - 44.6 °F 77% 29.66 in 10.0 mi SSW 16.1 mph 26.5 mph N/A   Clear
7:36 AM 50.7 °F - 43.9 °F 77% 29.66 in 10.0 mi South 20.7 mph 31.1 mph N/A   Clear
7:55 AM 51.4 °F - 44.4 °F 77% 29.67 in 10.0 mi SSW 20.7 mph 31.1 mph N/A   Clear
8:15 AM 50.2 °F - 43.3 °F 77% 29.69 in 10.0 mi SSW 19.6 mph 28.8 mph N/A   Clear
8:35 AM 50.2 °F - 43.3 °F 77% 29.70 in 10.0 mi SSW 17.3 mph 28.8 mph N/A   Clear
8:55 AM 50.2 °F - 43.3 °F 77% 29.71 in 10.0 mi SSW 23.0 mph 29.9 mph N/A   Clear
9:15 AM 50.2 °F - 43.3 °F 77% 29.73 in 10.0 mi SSW 18.4 mph 28.8 mph N/A   Clear
9:35 AM 50.5 °F - 43.0 °F 75% 29.74 in 10.0 mi SSW 23.0 mph 33.4 mph N/A   Clear
9:55 AM 50.2 °F - 42.8 °F 76% 29.74 in 10.0 mi SSW 21.9 mph 31.1 mph N/A   Clear
10:15 AM 50.2 °F - 42.8 °F 76% 29.75 in 10.0 mi SSW 21.9 mph 31.1 mph N/A   Clear
10:35 AM 50.2 °F - 43.0 °F 76% 29.76 in 10.0 mi SSW 23.0 mph 29.9 mph N/A   Clear
10:55 AM 50.2 °F - 42.8 °F 76% 29.77 in 10.0 mi SW 18.4 mph 26.5 mph N/A   Clear
11:15 AM 50.2 °F - 42.3 °F 74% 29.79 in 10.0 mi SW 21.9 mph 27.6 mph N/A   Clear
11:35 AM 50.2 °F - 42.6 °F 75% 29.79 in 10.0 mi SW 18.4 mph 31.1 mph N/A   Clear
11:55 AM 47.7 °F - 39.7 °F 74% 29.79 in 10.0 mi SW 17.3 mph 24.2 mph N/A   Clear
12:15 PM 47.7 °F - 36.0 °F 64% 29.81 in 10.0 mi SW 17.3 mph 24.2 mph N/A   Clear
12:35 PM 45.1 °F 38.1 °F 33.4 °F 64% 29.82 in 10.0 mi SW 16.1 mph 24.2 mph N/A   Clear
12:55 PM 44.4 °F 37.2 °F 32.9 °F 64% 29.84 in 10.0 mi SW 16.1 mph 26.5 mph N/A   Clear
1:15 PM 44.2 °F 37.0 °F 32.4 °F 63% 29.83 in 10.0 mi WSW 16.1 mph 23.0 mph N/A   Clear
1:35 PM 43.9 °F 36.8 °F 32.5 °F 64% 29.84 in 10.0 mi WSW 15.0 mph - N/A   Clear
1:55 PM 42.8 °F 36.2 °F 32.9 °F 68% 29.84 in 10.0 mi SW 12.7 mph - N/A   Clear
2:15 PM 42.4 °F 35.3 °F 32.5 °F 68% 29.85 in 10.0 mi WSW 13.8 mph 20.7 mph N/A   Clear
2:35 PM 41.4 °F 33.6 °F 31.5 °F 68% 29.86 in 10.0 mi WSW 15.0 mph 20.7 mph N/A   Clear
2:55 PM 41.4 °F 34.0 °F 31.5 °F 68% 29.87 in 10.0 mi SW 13.8 mph - N/A   Clear
3:15 PM 41.2 °F 33.4 °F 31.8 °F 69% 29.87 in 10.0 mi SW 15.0 mph 20.7 mph N/A   Clear
3:35 PM 41.4 °F 33.3 °F 31.1 °F 67% 29.89 in 10.0 mi WSW 16.1 mph 20.7 mph N/A   Clear
3:55 PM 40.1 °F 32.4 °F 30.4 °F 68% 29.90 in 10.0 mi SW 13.8 mph 20.7 mph N/A   Clear
4:15 PM 40.1 °F 33.2 °F 30.7 °F 69% 29.89 in 10.0 mi WSW 11.5 mph 17.3 mph N/A   Clear
4:35 PM 40.1 °F 35.3 °F 32.0 °F 73% 29.90 in 10.0 mi West 6.9 mph - N/A   Clear
4:55 PM 40.1 °F 34.1 °F 31.8 °F 72% 29.91 in 10.0 mi WSW 9.2 mph - N/A   Clear
5:15 PM 39.2 °F 33.0 °F 30.2 °F 70% 29.91 in 10.0 mi WSW 9.2 mph - N/A   Clear
5:35 PM 37.9 °F 30.9 °F 29.5 °F 72% 29.91 in 10.0 mi WSW 10.4 mph - N/A   Clear
5:55 PM 37.6 °F 30.0 °F 28.2 °F 69% 29.93 in 10.0 mi WSW 11.5 mph - N/A   Mostly Cloudy
6:14 PM 37.6 °F 30.5 °F 29.1 °F 72% 29.94 in 10.0 mi WSW 10.4 mph - N/A   Mostly Cloudy
6:35 PM 37.6 °F 30.0 °F 28.4 °F 69% 29.93 in 10.0 mi WSW 11.5 mph - N/A   Overcast
7:15 PM 37.6 °F 32.3 °F 27.9 °F 68% 29.93 in 10.0 mi WSW 6.9 mph - N/A   Overcast
7:35 PM 37.6 °F 30.5 °F 27.7 °F 67% 29.92 in 10.0 mi WSW 10.4 mph - N/A   Overcast
8:15 PM 36.9 °F 33.1 °F 24.6 °F 61% 29.92 in 10.0 mi West 4.6 mph - N/A   Mostly Cloudy
8:55 PM 37.0 °F 33.3 °F 27.3 °F 68% 29.92 in 10.0 mi West 4.6 mph - N/A Rain Light Rain
9:15 PM 37.4 °F 33.8 °F 28.4 °F 70% 29.95 in 10.0 mi West 4.6 mph - N/A   Overcast
9:35 PM 36.5 °F 31.8 °F 27.3 °F 69% 29.95 in 10.0 mi West 5.8 mph - N/A   Overcast
9:55 PM 35.1 °F 31.0 °F 25.5 °F 68% 29.95 in 7.0 mi West 4.6 mph - N/A Snow Light Snow
10:15 PM 35.1 °F 32.2 °F 25.7 °F 69% 29.95 in 7.0 mi West 3.5 mph - N/A Snow Light Snow
10:35 PM 35.1 °F 30.1 °F 26.1 °F 70% 29.95 in 7.0 mi WNW 5.8 mph - N/A Snow Light Snow
10:55 PM 35.1 °F 27.9 °F 26.4 °F 71% 29.95 in 10.0 mi WNW 9.2 mph - N/A   Overcast
11:15 PM 35.1 °F 29.3 °F 26.4 °F 71% 29.94 in 10.0 mi WNW 6.9 mph - N/A Snow Snow
11:35 PM 35.1 °F 32.2 °F 26.6 °F 71% 29.93 in 10.0 mi NW 3.5 mph - N/A Rain Light Rain
11:54 PM 35.1 °F 29.3 °F 28.8 °F 78% 29.91 in 7.0 mi NNW 6.9 mph - N/A Snow Light Snow